Regional Weather Roundup
Issued by NWS

Home | Current Version | Previous Version | Graphics & Text | Print | Product List | Glossary On
Versions: 1 2 3 4 5 6 7 8 9 10 11 12 13 14 15 16 17 18 19 20 21 22 23 24 25 26 27 28 29 30 31 32 33 34 35 36 37 38 39 40 41 42 43 44 45 46 47 48 49 50
896
ASUS43 KIND 292209
RWRIN

WEATHER ROUNDUP FOR INDIANA
NATIONAL WEATHER SERVICE INDIANAPOLIS IN
600 PM EDT MON MAY 29 2017

NOTE: "FAIR" INDICATES FEW OR NO CLOUDS BELOW 12,000 FEET WITH NO
SIGNIFICANT WEATHER AND/OR OBSTRUCTIONS TO VISIBILITY.

* - STATION DOES NOT REPORT WEATHER SUCH AS PRECIPITATION OR FOG.

+ - STATION NOT QUALITY CONTROLLED BY THE NATIONAL WEATHER SERVICE.
    USE DATA WITH CAUTION...ESPECIALLY DEWPOINT AND RELATIVE
    HUMIDITY OBSERVATIONS.

INZ001>003-010>013-019-020-292300-
NORTHWEST INDIANA

CITY           SKY/WX    TMP DP  RH WIND       PRES   REMARKS
GARY /AIRPORT/ MOSUNNY   79  32  18 W24G36    29.84R
KNOX *+        PTSUNNY   77  36  22 W17G24    29.83S
LA PORTE +     PTSUNNY   74  46  36 W16G25    29.85R
MICHIGAN CITY+ MOSUNNY   73  43  33 W13G23    29.85R
MONTICELLO +   CLOUDY    78  44  29 W12G20    29.85S
RENSSELAER +   MOSUNNY   77  34  20 SW16G25   29.86S
VALPARAISO     SUNNY     79  46  31 W17G26    29.84S

$$

LMZ046-743>745-292300-
SOUTHERN LAKE MICHIGAN

STATION/POSITION TIME  TEMP    WIND        PRES    WAVE
                       AIR SEA DIR/SP/G            HT
                 (UTC) (F)     (DEG/KT/KT) (MB)    (FT)
BURNS HARBOR     2200   69     260/ 18     1010.5
MICHIGAN CITY    2140   65     250/ 12/ 14   N/A
5NW MICH CITY    2200   62 56  290/ 12/ 16   N/A     2

$$

INZ004-005-014>016-021>024-292300-
NORTH CENTRAL INDIANA

CITY           SKY/WX    TMP DP  RH WIND       PRES   REMARKS
ELKHART        SUNNY     75  46  35 W16G22    29.83S
GOSHEN         MOSUNNY   76  44  32 W22G30    29.83S
LOGANSPORT +   CLOUDY    77  46  33 W14       29.86S
PERU/GRISSOM   PTSUNNY   78  52  39 W12       29.85S
ROCHESTER +    CLOUDY    79  41  25 W10G17    29.85S
SOUTH BEND     MOSUNNY   73  46  38 W15G23    29.84R
WARSAW +       CLOUDY    73  48  40 W7        29.84F

$$

INZ006>009-017-018-025>027-292300-
NORTHEAST INDIANA

CITY           SKY/WX    TMP DP  RH WIND       PRES   REMARKS
ANGOLA *+      MOSUNNY   77  48  36 SW12      29.83S
AUBURN +       LGT RAIN  73  48  40 SW7       29.86S
FORT WAYNE     CLOUDY    75  55  49 SW9       29.86S
HUNTINGTON +   MOSUNNY   73  55  52 SW5       29.85F
KENDALLVILLE + PTSUNNY   77  46  32 W16G23    29.85S

$$

INZ028-029-035-036-043>045-051>053-292300-
WEST CENTRAL INDIANA

CITY           SKY/WX    TMP DP  RH WIND       PRES   REMARKS
CRAWFORDSVL +  CLOUDY    -9 -22  50 SW9       29.88S WCI -26
GREENCASTLE +  SUNNY     79  46  31 CALM      29.89F
LAFAYETTE      CLOUDY    76  48  37 W13       29.85S
TERRE HAUTE    MOSUNNY   82  46  28 SW12      29.88F

$$

INZ030>032-037>040-046>048-054>057-064-065-292300-
CENTRAL INDIANA

CITY           SKY/WX    TMP DP  RH WIND       PRES   REMARKS
CP ATTERBURY + MOSUNNY   81  52  36 SW10G18   29.90F
COLUMBUS       SUNNY     81  45  28 SW13      29.90F
FISHERS *+     SUNNY     81  55  41 SW9G18    29.87F
FRANKFORT +    CLOUDY    79  55  43 W10       29.89S
GREENWOOD *+   SUNNY     80  50  35 W8        29.89F
INDIANAPOLIS   MOSUNNY   81  50  33 W15       29.87F
-EAGLE CREEK   SUNNY     81  46  29 SW9       29.87F
KOKOMO +       CLOUDY    77  52  41 W10       29.87F
MARION +       CLOUDY    79  50  36 SW10      29.88S
MT COMFORT *+    N/A    N/A N/A N/A MISG        N/A
SHELBYVILLE    PTSUNNY   78  53  41 SW13      29.88F
ZIONSVILLE +   MOSUNNY   78  51  37 SW15      29.89S

$$

INZ033-034-041-042-049-050-058-059-292300-
EAST CENTRAL INDIANA

CITY           SKY/WX    TMP DP  RH WIND       PRES   REMARKS
MUNCIE         SUNNY     81  43  26 W16G25    29.87F
RICHMOND +     MOSUNNY   77  54  44 W5        29.92F

$$

INZ060-061-067>069-081>083-085>088-292300-
SOUTHWEST INDIANA

CITY           SKY/WX    TMP DP  RH WIND       PRES   REMARKS
EVANSVILLE     MOSUNNY   85  48  27 W10       29.91S
HUNTINGBURG *+ MOSUNNY   81  56  42 W15       29.92S
WASHINGTON +   SUNNY     83  39  20 W10       29.89F

$$

INZ062-063-066-070>080-084-089>092-292300-
SOUTH CENTRAL AND SOUTHEAST INDIANA

CITY           SKY/WX    TMP DP  RH WIND       PRES   REMARKS
BEDFORD +      MOSUNNY   81  50  34 SW10      29.90F
BLOOMINGTON    MOSUNNY   83  44  25 W10       29.89F
MADISON *+     MOSUNNY   81  45  28 SW8       29.93F
NORTH VERNON + SUNNY     79  55  44 SW12      29.91F
SEYMOUR +      SUNNY     82  55  39 SW10G17   29.90F

$$





USA.gov is the U.S. government's official web portal to all federal, state and local government web resources and services.